Weather History for Andrews, TX

Change the Weather History Date:

Wednesday, May 8, 2013

  Actual Average (KMAF) Record (KMAF)
Temperature  
Mean Temperature 72 °F 71 °F  
Max Temperature 87 °F 86 °F 106 °F (1989)
Min Temperature 58 °F 57 °F 41 °F (1984)
Cooling Degree Days 8 7  
Month to date cooling degree days 50  
Year to date cooling degree days 158  
Growing Degree Days 22 (Base 50)    
Moisture  
Dew Point 37 °F    
Average Humidity 41    
Maximum Humidity 96    
Minimum Humidity 6    
Precipitation  
Precipitation 0.00 in 0.03 in 0.60 in (1932)
Month to date precipitation 0.26  
Year to date precipitation 2.78  
Sea Level Pressure  
Sea Level Pressure 29.92 in    
Wind  
Wind Speed 10 mph (SW)    
Max Wind Speed 22 mph    
Max Gust Speed 29 mph    
Visibility 10 miles    
Events      
T = Trace of Precipitation, MM = Missing Value Source: NWS Daily Summary

Daily Weather History Graph

Daily Weather History Graph

Search for Another Location

Airport:

Trip Planner

Search our weather history database for the weather conditions in past years. The results will help you decide how hot, cold, wet, or windy it might be!

Date:

Astronomy

May. 08, 2013 Rise Set
Actual Time 6:57 AM CDT 8:36 PM CDT
Civil Twilight 6:30 AM CDT 9:03 PM CDT
Nautical Twilight 5:58 AM CDT 9:35 PM CDT
Astronomical Twilight 5:25 AM CDT 10:08 PM CDT
Moon 6:02 AM CDT (5/8) 7:39 PM CDT (5/8)
Length of Visible Light 14h 32m
Length of Day
13h 39m
Waning Crescent, 2% of the Moon is Illuminated
May 8
Waning Crescent
May 9
New
May 17
First Quarter
May 24
Full
May 31
Last Quarter

Hourly Weather History & Observations

Time (CDT) Temp. Dew Point Humidity Pressure Visibility Wind Dir Wind Speed Gust Speed Precip Events Conditions
12:15 AM 69.4 °F 47.7 °F 46% 29.93 in 10.0 mi South 8.1 mph - N/A   Clear
12:35 AM 69.1 °F 48.6 °F 48% 29.94 in 10.0 mi South 8.1 mph - N/A   Clear
12:55 AM 68.0 °F 49.3 °F 51% 29.94 in 10.0 mi South 6.9 mph - N/A   Clear
1:15 AM 66.6 °F 49.6 °F 54% 29.94 in 10.0 mi South 8.1 mph - N/A   Clear
1:35 AM 65.5 °F 50.0 °F 57% 29.94 in 10.0 mi South 6.9 mph - N/A   Clear
1:55 AM 65.3 °F 51.3 °F 60% 29.94 in 10.0 mi South 8.1 mph - N/A   Clear
2:15 AM 66.2 °F 54.5 °F 66% 29.94 in 10.0 mi South 9.2 mph - N/A   Clear
2:35 AM 65.1 °F 54.9 °F 69% 29.93 in 10.0 mi SSE 6.9 mph - N/A   Clear
2:55 AM 64.4 °F 55.2 °F 72% 29.93 in 10.0 mi SSE 8.1 mph - N/A   Clear
3:15 AM 63.5 °F 55.4 °F 75% 29.93 in 10.0 mi SSE 8.1 mph - N/A   Clear
3:35 AM 63.5 °F 56.3 °F 77% 29.92 in 10.0 mi South 9.2 mph - N/A   Clear
3:55 AM 63.5 °F 57.2 °F 80% 29.92 in 10.0 mi South 8.1 mph - N/A   Clear
4:15 AM 62.6 °F 57.2 °F 82% 29.91 in 10.0 mi South 8.1 mph - N/A   Clear
4:35 AM 61.9 °F 57.2 °F 85% 29.91 in 10.0 mi South 6.9 mph - N/A   Clear
4:55 AM 61.7 °F 57.6 °F 86% 29.91 in 10.0 mi South 5.8 mph - N/A   Clear
5:15 AM 61.2 °F 57.6 °F 88% 29.91 in 10.0 mi SSE 6.9 mph - N/A   Clear
5:35 AM 60.3 °F 57.2 °F 90% 29.92 in 10.0 mi SSE 5.8 mph - N/A   Clear
5:55 AM 59.7 °F 57.2 °F 91% 29.92 in 10.0 mi SSE 4.6 mph - N/A   Clear
6:15 AM 59.2 °F 57.0 °F 93% 29.92 in 10.0 mi SSE 4.6 mph - N/A   Clear
6:35 AM 58.8 °F 57.2 °F 94% 29.92 in 10.0 mi SSE 4.6 mph - N/A   Clear
6:55 AM 58.3 °F 56.8 °F 95% 29.93 in 7.0 mi South 3.5 mph - N/A   Clear
7:15 AM 58.3 °F 57.0 °F 96% 29.94 in 7.0 mi SSW 3.5 mph - N/A   Clear
7:35 AM 60.1 °F 57.9 °F 93% 29.94 in 7.0 mi SSW 5.8 mph - N/A   Clear
7:55 AM 61.0 °F 58.1 °F 90% 29.95 in 7.0 mi SSW 5.8 mph - N/A   Clear
8:15 AM 61.3 °F 58.3 °F 90% 29.96 in 7.0 mi SSW 8.1 mph - N/A   Clear
8:35 AM 64.2 °F 59.0 °F 83% 29.96 in 10.0 mi SSW 10.4 mph - N/A   Clear
8:55 AM 65.7 °F 59.4 °F 80% 29.97 in 10.0 mi SSW 13.8 mph 19.6 mph N/A   Clear
9:15 AM 68.0 °F 59.2 °F 73% 29.97 in 10.0 mi SW 13.8 mph - N/A   Clear
9:35 AM 68.4 °F 58.5 °F 71% 29.97 in 10.0 mi North - - N/A   Clear
9:55 AM 70.5 °F 57.6 °F 63% 29.97 in 10.0 mi WSW 11.5 mph - N/A   Clear
10:15 AM 72.7 °F 55.4 °F 55% 29.97 in 10.0 mi WSW 6.9 mph - N/A   Clear
10:35 AM 76.6 °F 46.4 °F 34% 29.97 in 10.0 mi WNW 13.8 mph 18.4 mph N/A   Clear
10:55 AM 77.5 °F 45.7 °F 32% 29.97 in 10.0 mi West 13.8 mph 19.6 mph N/A   Clear
11:15 AM 78.1 °F 41.4 °F 27% 29.97 in 10.0 mi West 15.0 mph 23.0 mph N/A   Clear
11:35 AM 79.5 °F 36.7 °F 21% 29.97 in 10.0 mi West 19.6 mph 23.0 mph N/A   Clear
11:55 AM 79.7 °F 25.5 °F 14% 29.96 in 10.0 mi WNW 15.0 mph 23.0 mph N/A   Clear
12:15 PM 82.4 °F 23.7 °F 12% 29.96 in 10.0 mi West 16.1 mph 23.0 mph N/A   Clear
12:35 PM 83.3 °F 25.9 °F 12% 29.96 in 10.0 mi West 18.4 mph 21.9 mph N/A   Clear
12:55 PM 84.0 °F 26.2 °F 12% 29.95 in 10.0 mi West 19.6 mph 24.2 mph N/A   Clear
1:15 PM 85.1 °F 24.8 °F 11% 29.95 in 10.0 mi West 15.0 mph 21.9 mph N/A   Clear
1:35 PM 85.1 °F 23.7 °F 11% 29.95 in 10.0 mi West 15.0 mph 24.2 mph N/A   Clear
1:55 PM 82.9 °F 25.7 °F 12% 29.95 in 10.0 mi West 12.7 mph 21.9 mph N/A   Clear
2:15 PM 84.6 °F 20.8 °F 10% 29.94 in 10.0 mi WSW 16.1 mph 26.5 mph N/A   Clear
2:35 PM 85.3 °F 19.4 °F 9% 29.94 in 10.0 mi West 21.9 mph 28.8 mph N/A   Clear
2:55 PM 85.6 °F 21.6 °F 10% 29.93 in 10.0 mi WSW 17.3 mph 27.6 mph N/A   Clear
3:35 PM 86.5 °F 24.8 °F 11% 29.92 in 10.0 mi WSW 16.1 mph 26.5 mph N/A   Clear
3:55 PM 86.5 °F 23.2 °F 10% 29.91 in 10.0 mi West 17.3 mph 28.8 mph N/A   Clear
4:15 PM 86.4 °F 21.7 °F 9% 29.90 in 10.0 mi West 12.7 mph 18.4 mph N/A   Clear
4:35 PM 86.2 °F 22.1 °F 10% 29.89 in 10.0 mi West 11.5 mph 16.1 mph N/A   Clear
4:55 PM 86.7 °F 22.5 °F 10% 29.88 in 10.0 mi WSW 15.0 mph - N/A   Clear
5:15 PM 86.7 °F 22.5 °F 10% 29.87 in 10.0 mi WSW 9.2 mph 19.6 mph N/A   Clear
5:35 PM 87.6 °F 21.7 °F 9% 29.87 in 10.0 mi SW 16.1 mph - N/A   Clear
5:55 PM 86.5 °F 18.9 °F 8% 29.86 in 10.0 mi West 9.2 mph 21.9 mph N/A   Clear
6:15 PM 86.7 °F 12.7 °F 6% 29.86 in 10.0 mi WSW 15.0 mph 23.0 mph N/A   Clear
6:35 PM 85.3 °F 10.6 °F 6% 29.86 in 10.0 mi WSW 13.8 mph - N/A   Clear
6:55 PM 85.5 °F 10.4 °F 6% 29.86 in 10.0 mi North - - N/A   Clear
7:15 PM 85.1 °F 11.3 °F 6% 29.86 in 10.0 mi SW 11.5 mph - N/A   Clear
7:35 PM 84.2 °F 11.3 °F 6% 29.86 in 10.0 mi WSW 13.8 mph 27.6 mph N/A   Clear
7:55 PM 83.1 °F 11.8 °F 7% 29.87 in 10.0 mi SW 18.4 mph 23.0 mph N/A   Clear
8:15 PM 81.9 °F 13.6 °F 8% 29.87 in 10.0 mi WSW 12.7 mph - N/A   Clear
8:35 PM 81.0 °F 12.9 °F 8% 29.89 in 10.0 mi WSW 12.7 mph 18.4 mph N/A   Clear
8:55 PM 79.5 °F 13.5 °F 8% 29.89 in 10.0 mi WSW 12.7 mph - N/A   Clear
9:15 PM 78.6 °F 13.6 °F 9% 29.90 in 10.0 mi West 8.1 mph - N/A   Clear
9:35 PM 77.2 °F 14.5 °F 9% 29.90 in 10.0 mi West 11.5 mph 17.3 mph N/A   Clear
10:15 PM 75.6 °F 15.6 °F 10% 29.90 in 10.0 mi West 9.2 mph - N/A   Clear
10:35 PM 74.7 °F 16.2 °F 11% 29.91 in 10.0 mi West 9.2 mph - N/A   Clear
10:55 PM 73.0 °F 17.2 °F 12% 29.92 in 10.0 mi West 8.1 mph - N/A   Clear
11:55 PM 70.2 °F 18.3 °F 14% 29.91 in 10.0 mi WNW 6.9 mph - N/A   Clear